Location: Newark
(44.9861°N, 0.2536°E)
Time: 22:36:11
(UTC+00:00)

HuskySat-1 - Pass Details

Date: 19 July 2020
Orbit: 457 x 471 km, 51.6° (Epoch: 10 August)

Event Time Altitude Azimuth Distance (km) Brightness Sun altitude
Rises 21:56:28 0° 255° (WSW) 2,499 ? -18.1°
Reaches altitude 10° 21:58:40 10° 261° (W) 1,622 ? -18.3°
Maximum altitude 22:02:14 50° 338° (NNW) 601 ? -18.6°
Drops below altitude 10° 22:05:48 10° 55° (NE) 1,619 ? -19.0°
Sets 22:08:00 0° 61° (ENE) 2,493 ? -19.1°
